カタログに戻る

FENGYUN 1C DEB

運用中SSO
NORAD 29845·DEBRIS·🇨🇳 China

打ち上げ May 10, 1999 から Taiyuan Satellite Launch Center

Loading…

次のパス (今後24時間)

TLE

最新Source: Space-Track

元期: Sep 14, 2026, 11:21 UTC

1 29845U 99025EP  26257.47338868  .00000521  00000-0  22434-3 0  9998
2 29845  98.5313 255.8080 0078002  44.7958 107.6677 14.26997434 20400

AllMySatでFENGYUN 1C DEBをリアルタイム追跡

Download on the App Store